Weather History for Spokane Fairchild, WA

Change the Weather History Date:

Tuesday, November 5, 2013

  Actual Average Record
Temperature  
Mean Temperature 30 °F -  
Max Temperature 33 °F 44 °F 56 °F (2012)
Min Temperature 27 °F 28 °F 14 °F (2003)
Degree Days  
Heating Degree Days 35    
Moisture  
Dew Point 31 °F    
Average Humidity 96    
Maximum Humidity 100    
Minimum Humidity 80    
Precipitation  
Precipitation 0.03 in - - ()
Snow  
Snow 0.00 in - - ()
Snow Depth 1.00 in    
Sea Level Pressure  
Sea Level Pressure 30.13 in    
Wind  
Wind Speed 5 mph (ESE)    
Max Wind Speed 9 mph    
Max Gust Speed -    
Visibility 2 miles    
Events Fog , Rain , Snow    
Averages and records for this station are not official NWS values.
T = Trace of Precipitation, MM = Missing Value Source: NWS Daily Summary

Daily Weather History Graph

Daily Weather History Graph

Search for Another Location

Airport:

Trip Planner

Search our weather history database for the weather conditions in past years. The results will help you decide how hot, cold, wet, or windy it might be!

Date:

Astronomy

Nov. 05, 2013 Rise Set
Actual Time 6:41 AM PST 4:26 PM PST
Civil Twilight 6:08 AM PST 4:59 PM PST
Nautical Twilight 5:31 AM PST 5:35 PM PST
Astronomical Twilight 4:55 AM PST 6:11 PM PST
Moon 9:07 AM PST (11/5) 6:26 PM PST (11/5)
Length of Visible Light 10h 50m
Length of Day
9h 45m
Waxing Crescent, 7% of the Moon is Illuminated
Nov 5
Waxing Crescent
Nov 9
First Quarter
Nov 17
Full
Nov 25
Last Quarter
Dec 2
New

Hourly Weather History & Observations

Time (PST) Temp. Windchill Dew Point Humidity Pressure Visibility Wind Dir Wind Speed Gust Speed Precip Events Conditions
12:58 AM 27.9 °F 22.6 °F 25.5 °F 91% 30.21 in 10.0 mi SE 4.6 mph - N/A   Overcast
1:58 AM 28.4 °F 21.2 °F 25.7 °F 90% 30.21 in 10.0 mi SE 6.9 mph - N/A   Overcast
2:58 AM 28.9 °F 22.8 °F 26.1 °F 89% 30.20 in 10.0 mi SE 5.8 mph - N/A   Overcast
3:58 AM 29.8 °F - 26.8 °F 88% 30.19 in 10.0 mi East 1.2 mph - N/A   Mostly Cloudy
4:13 AM 30.2 °F - 26.6 °F 86% 30.12 in 10.0 mi ESE 2.3 mph - N/A   Overcast
4:23 AM 30.2 °F 26.7 °F 26.6 °F 86% 30.13 in 10.0 mi SE 3.5 mph - N/A   Overcast
4:37 AM 30.2 °F 26.7 °F 26.6 °F 86% 30.12 in 10.0 mi East 3.5 mph - N/A   Mostly Cloudy
4:58 AM 30.0 °F - 27.1 °F 89% 30.20 in 10.0 mi South 1.2 mph - 0.00 in   Partly Cloudy
5:14 AM 32.0 °F - 26.6 °F 80% 30.12 in 10.0 mi SE 2.3 mph - N/A   Partly Cloudy
5:44 AM 32.0 °F 27.5 °F 26.6 °F 80% 30.12 in 10.0 mi SE 4.6 mph - N/A   Overcast
5:54 AM 32.0 °F 27.5 °F 26.6 °F 80% 30.12 in 10.0 mi SE 4.6 mph - N/A Snow Light Snow
5:58 AM 32.0 °F 28.7 °F 26.6 °F 80% 30.20 in 10.0 mi SSE 3.5 mph - 0.00 in Snow Light Snow
6:38 AM 30.2 °F 24.3 °F 28.4 °F 93% 30.12 in 2.0 mi SE 5.8 mph - N/A Snow Light Snow
6:40 AM 30.2 °F 24.3 °F 28.4 °F 93% 30.12 in 1.8 mi SE 5.8 mph - N/A Snow Light Snow
6:42 AM 30.2 °F 24.3 °F 28.4 °F 93% 30.12 in 1.5 mi SE 5.8 mph - N/A Snow Light Snow
6:44 AM 30.2 °F 24.3 °F 28.4 °F 93% 30.12 in 1.2 mi ESE 5.8 mph - N/A Snow Light Snow
6:54 AM 30.2 °F 25.4 °F 28.4 °F 93% 30.12 in 1.5 mi SE 4.6 mph - N/A Snow Light Snow
6:56 AM 30.2 °F 24.3 °F 28.4 °F 93% 30.12 in 1.8 mi SE 5.8 mph - N/A Snow Light Snow
6:58 AM 30.2 °F 23.4 °F 28.4 °F 93% 30.20 in 2.0 mi SE 6.9 mph - 0.01 in Snow Light Snow
7:00 AM 30.2 °F 24.3 °F 28.4 °F 93% 30.12 in 2.5 mi ESE 5.8 mph - N/A Snow Light Snow
7:02 AM 30.2 °F 24.3 °F 28.4 °F 93% 30.12 in 3.0 mi ESE 5.8 mph - N/A Snow Light Snow
7:07 AM 30.2 °F 25.4 °F 28.4 °F 93% 30.12 in 4.0 mi ESE 4.6 mph - N/A Snow Light Snow
7:19 AM 30.2 °F 25.4 °F 28.4 °F 93% 30.12 in 2.5 mi ESE 4.6 mph - N/A Snow Light Snow
7:23 AM 30.2 °F 25.4 °F 28.4 °F 93% 30.12 in 2.0 mi East 4.6 mph - N/A Snow Light Snow
7:25 AM 30.2 °F 25.4 °F 28.4 °F 93% 30.12 in 1.5 mi East 4.6 mph - N/A Snow Light Snow
7:27 AM 30.2 °F 25.4 °F 28.4 °F 93% 30.12 in 1.2 mi East 4.6 mph - N/A Snow Light Snow
7:29 AM 30.2 °F 25.4 °F 28.4 °F 93% 30.12 in 1.0 mi East 4.6 mph - N/A Snow Light Snow
7:30 AM 30.2 °F 25.4 °F 28.4 °F 93% 30.12 in 1.0 mi East 4.6 mph - N/A Snow Light Snow
7:31 AM 30.2 °F 25.4 °F 28.4 °F 93% 30.12 in 0.8 mi East 4.6 mph - N/A Snow Light Snow
7:36 AM 30.2 °F 24.3 °F 28.4 °F 93% 30.12 in 0.8 mi East 5.8 mph - N/A Snow Light Snow
7:41 AM 30.2 °F 24.3 °F 28.4 °F 93% 30.12 in 1.0 mi East 5.8 mph - N/A Snow Light Snow
7:46 AM 30.2 °F 22.6 °F 28.4 °F 93% 30.12 in 1.2 mi East 8.1 mph - N/A Snow Light Snow
7:48 AM 30.2 °F 23.4 °F 28.4 °F 93% 30.12 in 1.0 mi East 6.9 mph - N/A Snow Light Snow
7:58 AM 29.7 °F 22.8 °F 28.9 °F 97% 30.20 in 1.0 mi East 6.9 mph - 0.01 in Snow Light Snow
8:00 AM 30.2 °F 24.3 °F 28.4 °F 93% 30.12 in 1.2 mi East 5.8 mph - N/A Snow Light Snow
8:04 AM 30.2 °F 23.4 °F 28.4 °F 93% 30.12 in 1.5 mi East 6.9 mph - N/A Snow Light Snow
8:14 AM 30.2 °F 23.4 °F 28.4 °F 93% 30.12 in 1.5 mi East 6.9 mph - N/A Snow Light Snow
8:16 AM 30.2 °F 24.3 °F 28.4 °F 93% 30.12 in 1.8 mi East 5.8 mph - N/A Snow Light Snow
8:24 AM 30.2 °F 24.3 °F 28.4 °F 93% 30.12 in 2.0 mi East 5.8 mph - N/A Snow Light Snow
8:28 AM 30.2 °F 23.4 °F 28.4 °F 93% 30.12 in 2.5 mi ESE 6.9 mph - N/A Snow Light Snow
8:34 AM 30.2 °F 23.4 °F 28.4 °F 93% 30.12 in 2.0 mi East 6.9 mph - N/A Snow Light Snow
8:36 AM 30.2 °F 24.3 °F 28.4 °F 93% 30.13 in 1.8 mi East 5.8 mph - N/A Snow Light Snow
8:58 AM 32.0 °F 25.6 °F 28.4 °F 87% 30.20 in 4.0 mi East 6.9 mph - 0.00 in   Overcast
9:14 AM 32.0 °F 27.5 °F 28.4 °F 87% 30.12 in 2.5 mi East 4.6 mph - N/A Snow Light Snow
9:16 AM 32.0 °F 25.6 °F 28.4 °F 87% 30.12 in 2.0 mi East 6.9 mph - N/A Snow Light Snow
9:18 AM 32.0 °F 26.4 °F 28.4 °F 87% 30.12 in 1.8 mi East 5.8 mph - N/A Snow Light Snow
9:28 AM 32.0 °F 24.2 °F 30.2 °F 93% 30.12 in 1.8 mi East 9.2 mph - N/A Snow Light Snow
9:32 AM 32.0 °F 24.8 °F 30.2 °F 93% 30.12 in 2.0 mi East 8.1 mph - N/A Snow Light Snow
9:58 AM 32.0 °F 24.8 °F 30.2 °F 93% 30.20 in 2.5 mi East 8.1 mph - 0.00 in Snow Light Snow
10:05 AM 32.0 °F 24.8 °F 30.2 °F 93% 30.12 in 2.0 mi ESE 8.1 mph - N/A Snow Light Snow
10:07 AM 32.0 °F 25.6 °F 30.2 °F 93% 30.13 in 1.8 mi East 6.9 mph - N/A Snow Light Snow
10:17 AM 32.0 °F 25.6 °F 30.2 °F 93% 30.13 in 1.8 mi East 6.9 mph - N/A Snow Light Snow
10:27 AM 32.0 °F 26.4 °F 30.2 °F 93% 30.13 in 1.8 mi East 5.8 mph - N/A Snow Light Snow
10:37 AM 32.0 °F 26.4 °F 30.2 °F 93% 30.13 in 1.5 mi East 5.8 mph - N/A Snow Light Snow
10:41 AM 32.0 °F 26.4 °F 30.2 °F 93% 30.13 in 1.2 mi East 5.8 mph - N/A Snow Light Snow
10:51 AM 32.0 °F 25.6 °F 30.2 °F 93% 30.12 in 1.5 mi East 6.9 mph - N/A Snow Light Snow
10:56 AM 32.0 °F 26.4 °F 30.2 °F 93% 30.12 in 1.5 mi East 5.8 mph - N/A Snow Light Snow
10:58 AM 32.0 °F 26.4 °F 30.2 °F 93% 30.20 in 1.5 mi East 5.8 mph - 0.01 in Snow Light Snow
11:00 AM 32.0 °F 26.4 °F 30.2 °F 93% 30.12 in 1.8 mi East 5.8 mph - N/A Snow Light Snow
11:10 AM 32.0 °F 26.4 °F 30.2 °F 93% 30.12 in 2.0 mi East 5.8 mph - N/A   Overcast
11:16 AM 32.0 °F 25.6 °F 30.2 °F 93% 30.12 in 2.5 mi East 6.9 mph - N/A   Overcast
11:22 AM 32.0 °F 24.2 °F 30.2 °F 93% 30.11 in 3.0 mi East 9.2 mph - N/A   Overcast
11:27 AM 32.0 °F 25.6 °F 30.2 °F 93% 30.11 in 3.0 mi East 6.9 mph - N/A   Overcast
11:58 AM 31.3 °F 25.6 °F 30.0 °F 95% 30.18 in 4.0 mi East 5.8 mph - 0.00 in   Overcast
12:06 PM 32.0 °F 25.6 °F 30.2 °F 93% 30.09 in 4.0 mi East 6.9 mph - N/A   Overcast
12:32 PM 32.0 °F 27.5 °F 32.0 °F 100% 30.09 in 2.5 mi East 4.6 mph - N/A   Overcast
12:35 PM 32.0 °F 25.6 °F 32.0 °F 100% 30.09 in 2.5 mi East 6.9 mph - N/A   Light Freezing Drizzle
12:39 PM 32.0 °F 26.4 °F 32.0 °F 100% 30.09 in 2.0 mi East 5.8 mph - N/A   Light Freezing Drizzle
1:58 PM 32.0 °F 24.2 °F 32.0 °F 100% 30.16 in 2.0 mi East 9.2 mph - N/A   Light Freezing Drizzle
2:40 PM 32.0 °F 26.4 °F 32.0 °F 100% 30.08 in 3.0 mi East 5.8 mph - N/A   Overcast
2:55 PM 31.8 °F 26.2 °F 31.6 °F 99% 30.16 in 4.0 mi East 5.8 mph - 0.00 in   Overcast
3:26 PM 32.0 °F 26.4 °F 32.0 °F 100% 30.15 in 6.0 mi East 5.8 mph - N/A Snow Snow Grains
3:38 PM 32.0 °F 27.5 °F 32.0 °F 100% 30.15 in 4.0 mi ENE 4.6 mph - N/A   Overcast
3:48 PM 32.0 °F 25.6 °F 32.0 °F 100% 30.16 in 2.5 mi ENE 6.9 mph - N/A   Overcast
3:58 PM 32.0 °F 25.6 °F 31.6 °F 99% 30.15 in 2.5 mi ENE 6.9 mph - 0.00 in   Overcast
4:10 PM 32.0 °F 26.4 °F 32.0 °F 100% 30.07 in 2.5 mi NE 5.8 mph - N/A   Overcast
4:20 PM 32.0 °F 26.4 °F 32.0 °F 100% 30.08 in 3.0 mi NE 5.8 mph - N/A   Overcast
4:58 PM 32.0 °F 26.4 °F 31.8 °F 99% 30.16 in 4.0 mi NE 5.8 mph - 0.00 in   Overcast
5:10 PM 32.0 °F 26.4 °F 32.0 °F 100% 30.08 in 2.5 mi NNE 5.8 mph - N/A   Overcast
5:11 PM 32.0 °F 26.4 °F 32.0 °F 100% 30.08 in 2.5 mi NNE 5.8 mph - N/A   Light Freezing Drizzle
5:21 PM 32.0 °F 26.4 °F 32.0 °F 100% 30.08 in 2.0 mi NE 5.8 mph - N/A Rain Light Freezing Rain
5:33 PM 32.0 °F 26.4 °F 32.0 °F 100% 30.08 in 1.8 mi ENE 5.8 mph - N/A Rain Light Freezing Rain
5:38 PM 32.0 °F 28.7 °F 32.0 °F 100% 30.08 in 1.8 mi ENE 3.5 mph - N/A Rain Light Freezing Rain
5:55 PM 32.0 °F 27.5 °F 32.0 °F 100% 30.09 in 1.8 mi NE 4.6 mph - N/A   Overcast
5:58 PM 32.2 °F 27.7 °F 31.8 °F 99% 30.17 in 1.8 mi NE 4.6 mph - 0.00 in   Overcast
6:08 PM 32.0 °F 28.7 °F 32.0 °F 100% 30.09 in 1.5 mi NE 3.5 mph - N/A   Overcast
6:20 PM 32.0 °F 27.5 °F 32.0 °F 100% 30.09 in 1.8 mi ENE 4.6 mph - N/A   Overcast
6:25 PM 32.0 °F 27.5 °F 32.0 °F 100% 30.09 in 1.8 mi NE 4.6 mph - N/A   Overcast
6:27 PM 32.0 °F 28.7 °F 32.0 °F 100% 30.09 in 2.0 mi NE 3.5 mph - N/A   Overcast
6:29 PM 32.0 °F 27.5 °F 32.0 °F 100% 30.09 in 1.8 mi NE 4.6 mph - N/A   Overcast
6:41 PM 32.0 °F 28.7 °F 32.0 °F 100% 30.09 in 1.5 mi NE 3.5 mph - N/A   Overcast
6:45 PM 32.0 °F 28.7 °F 32.0 °F 100% 30.09 in 1.2 mi NE 3.5 mph - N/A   Overcast
6:50 PM 32.0 °F 28.7 °F 32.0 °F 100% 30.09 in 1.2 mi ENE 3.5 mph - N/A   Overcast
6:51 PM 32.0 °F 28.7 °F 32.0 °F 100% 30.09 in 1.2 mi ENE 3.5 mph - N/A   Overcast
6:54 PM 32.0 °F 27.5 °F 32.0 °F 100% 30.09 in 1.0 mi East 4.6 mph - N/A   Mist
6:55 PM 32.0 °F 27.5 °F 32.0 °F 100% 30.09 in 1.0 mi East 4.6 mph - N/A   Mist
6:58 PM 32.0 °F 27.5 °F 32.0 °F 100% 30.17 in 1.0 mi East 4.6 mph - 0.00 in   Mist
6:59 PM 32.0 °F 27.5 °F 32.0 °F 100% 30.09 in 1.0 mi East 4.6 mph - N/A   Mist
7:08 PM 32.0 °F 28.7 °F 32.0 °F 100% 30.09 in 1.0 mi ENE 3.5 mph - N/A   Mist
7:13 PM 32.0 °F 27.5 °F 32.0 °F 100% 30.09 in 1.2 mi ENE 4.6 mph - N/A   Overcast
7:14 PM 32.0 °F 27.5 °F 32.0 °F 100% 30.09 in 1.2 mi ENE 4.6 mph - N/A   Overcast
7:17 PM 32.0 °F 27.5 °F 32.0 °F 100% 30.08 in 1.2 mi East 4.6 mph - N/A   Overcast
7:21 PM 32.0 °F 28.7 °F 32.0 °F 100% 30.09 in 1.5 mi ENE 3.5 mph - N/A   Overcast
7:22 PM 32.0 °F 28.7 °F 32.0 °F 100% 30.09 in 1.2 mi ENE 3.5 mph - N/A   Overcast
7:23 PM 32.0 °F 28.7 °F 32.0 °F 100% 30.09 in 1.2 mi ENE 3.5 mph - N/A   Overcast
7:33 PM 32.0 °F 27.5 °F 32.0 °F 100% 30.10 in 1.5 mi East 4.6 mph - N/A   Overcast
7:43 PM 32.0 °F - 32.0 °F 100% 30.10 in 1.5 mi East 2.3 mph - N/A   Overcast
7:45 PM 32.0 °F - 32.0 °F 100% 30.10 in 1.2 mi ENE 1.2 mph - N/A   Overcast
7:49 PM 32.0 °F - 32.0 °F 100% 30.10 in 1.2 mi Calm Calm - N/A   Overcast
7:50 PM 32.0 °F - 32.0 °F 100% 30.10 in 1.0 mi Calm Calm - N/A   Mist
7:58 PM 32.4 °F - 32.2 °F 99% 30.18 in 1.0 mi Calm Calm - 0.00 in   Mist
8:04 PM 32.0 °F - 32.0 °F 100% 30.10 in 1.0 mi Calm Calm - N/A   Mist
8:23 PM 32.0 °F 28.7 °F 32.0 °F 100% 30.11 in 1.2 mi South 3.5 mph - N/A   Overcast
8:24 PM 32.0 °F 28.7 °F 32.0 °F 100% 30.11 in 1.2 mi South 3.5 mph - N/A   Overcast
8:28 PM 32.0 °F 28.7 °F 32.0 °F 100% 30.11 in 1.5 mi South 3.5 mph - N/A   Overcast
8:30 PM 32.0 °F 28.7 °F 32.0 °F 100% 30.11 in 1.8 mi South 3.5 mph - N/A   Overcast
8:32 PM 32.0 °F 27.5 °F 32.0 °F 100% 30.11 in 2.0 mi South 4.6 mph - N/A   Overcast
8:38 PM 32.0 °F 27.5 °F 32.0 °F 100% 30.12 in 2.5 mi South 4.6 mph - N/A   Overcast
8:42 PM 32.0 °F 26.4 °F 32.0 °F 100% 30.12 in 2.0 mi South 5.8 mph - N/A   Overcast
8:46 PM 32.0 °F 26.4 °F 32.0 °F 100% 30.12 in 1.8 mi South 5.8 mph - N/A   Overcast
8:50 PM 32.0 °F 26.4 °F 32.0 °F 100% 30.12 in 2.0 mi South 5.8 mph - N/A   Overcast
8:54 PM 32.0 °F 27.5 °F 32.0 °F 100% 30.12 in 2.5 mi South 4.6 mph - N/A   Overcast
8:58 PM 32.0 °F 28.7 °F 32.0 °F 100% 30.20 in 3.0 mi South 3.5 mph - 0.00 in   Overcast
9:03 PM 32.0 °F 26.4 °F 32.0 °F 100% 30.12 in 4.0 mi South 5.8 mph - N/A   Overcast
9:08 PM 32.0 °F 26.4 °F 32.0 °F 100% 30.12 in 4.0 mi South 5.8 mph - N/A   Overcast
9:18 PM 32.0 °F 28.7 °F 32.0 °F 100% 30.12 in 4.0 mi South 3.5 mph - N/A   Overcast
9:23 PM 32.0 °F - 32.0 °F 100% 30.13 in 4.0 mi SSW 2.3 mph - N/A   Overcast
9:31 PM 32.0 °F - 32.0 °F 100% 30.13 in 2.5 mi SW 2.3 mph - N/A   Overcast
9:41 PM 32.0 °F - 32.0 °F 100% 30.13 in 3.0 mi WSW 2.3 mph - N/A   Overcast
9:46 PM 32.0 °F - 32.0 °F 100% 30.13 in 3.0 mi SW 2.3 mph - N/A   Overcast
9:51 PM 32.0 °F - 32.0 °F 100% 30.14 in 3.0 mi SW 2.3 mph - N/A   Overcast
9:58 PM 33.1 °F - 32.9 °F 99% 30.22 in 4.0 mi SW 2.3 mph - N/A   Overcast
10:07 PM 32.0 °F 28.7 °F 32.0 °F 100% 30.14 in 3.0 mi SW 3.5 mph - N/A   Overcast
10:09 PM 32.0 °F 28.7 °F 32.0 °F 100% 30.14 in 2.5 mi SW 3.5 mph - N/A   Overcast
10:15 PM 32.0 °F 28.7 °F 32.0 °F 100% 30.14 in 2.0 mi WSW 3.5 mph - N/A   Overcast
10:19 PM 32.0 °F 28.7 °F 32.0 °F 100% 30.15 in 1.8 mi WSW 3.5 mph - N/A   Overcast
10:23 PM 32.0 °F 28.7 °F 32.0 °F 100% 30.15 in 1.5 mi WSW 3.5 mph - N/A   Overcast
10:27 PM 32.0 °F 28.7 °F 32.0 °F 100% 30.14 in 1.2 mi SW 3.5 mph - N/A   Overcast
10:35 PM 32.0 °F - 32.0 °F 100% 30.14 in 1.5 mi Calm Calm - N/A   Overcast
10:36 PM 32.0 °F - 32.0 °F 100% 30.14 in 1.5 mi Calm Calm - N/A   Overcast
10:44 PM 32.0 °F - 32.0 °F 100% 30.14 in 1.2 mi Calm Calm - N/A   Overcast
10:47 PM 32.0 °F - 32.0 °F 100% 30.14 in 1.2 mi South 1.2 mph - N/A   Overcast
10:49 PM 32.0 °F - 32.0 °F 100% 30.14 in 1.0 mi South 2.3 mph - N/A   Mist
10:58 PM 33.1 °F - 32.9 °F 99% 30.22 in 1.0 mi West 1.2 mph - 0.00 in   Mist
11:01 PM 32.0 °F - 32.0 °F 100% 30.15 in 1.0 mi Calm Calm - N/A   Mist
11:05 PM 32.0 °F - 32.0 °F 100% 30.15 in 0.8 mi Calm Calm - N/A   Mist
11:09 PM 32.0 °F - 32.0 °F 100% 30.15 in 0.8 mi Calm Calm - N/A   Mist
11:15 PM 32.0 °F - 32.0 °F 100% 30.15 in 0.8 mi SW 1.2 mph - N/A   Mist
11:17 PM 32.0 °F - 32.0 °F 100% 30.15 in 0.5 mi SW 1.2 mph - N/A Fog Fog
11:22 PM 32.0 °F - 32.0 °F 100% 30.15 in 0.5 mi SW 1.2 mph - N/A Fog Fog
11:23 PM 32.0 °F - 32.0 °F 100% 30.15 in 0.5 mi WSW 1.2 mph - N/A Fog Fog
11:24 PM 32.0 °F - 32.0 °F 100% 30.15 in 0.5 mi West 1.2 mph - N/A Fog Fog
11:25 PM 32.0 °F - 32.0 °F 100% 30.15 in 0.5 mi Calm Calm - N/A Fog Fog
11:30 PM 32.0 °F - 32.0 °F 100% 30.15 in 0.5 mi Calm Calm - N/A Fog Fog
11:39 PM 32.0 °F - 32.0 °F 100% 30.15 in 0.5 mi NNW 1.2 mph - N/A Fog Fog
11:49 PM 32.0 °F - 32.0 °F 100% 30.16 in 0.8 mi NW 2.3 mph - N/A   Mist
11:55 PM 32.0 °F - 32.0 °F 100% 30.16 in 0.5 mi NW 2.3 mph - N/A Fog Fog
11:58 PM 32.0 °F - 32.0 °F 100% 30.24 in 0.5 mi NNW 1.2 mph - 0.00 in Fog Fog